Regional Weather Roundup
Issued by NWS Portland, ME

Current Version | Previous Version | Text Only | Print | Product List | Glossary Off
Versions: 1 2 3 4 5 6 7 8 9 10 11 12 13 14 15 16 17 18 19 20 21 22 23 24 25 26 27 28 29 30 31 32 33 34 35 36 37 38 39 40 41 42 43 44 45 46 47 48 49 50

000
ASUS41 KGYX 311805
RWRGYX
WEATHER ROUNDUP FOR MAINE AND NEW HAMPSHIRE
NATIONAL WEATHER SERVICE GRAY ME
100 PM EST SAT JAN 31 2015

MEZ002-005-006-010-012-015-018-020-021-024-026-027-029-311900-
MAINE

CITY           SKY/WX    TMP DP  RH WIND       PRES   REMARKS
PORTLAND       PTSUNNY   20   0  41 NW22G36   29.75S WCI   3
6HR MIN TEMP:  13; 6HR MAX TEMP:  20;

SANFORD        SUNNY     19   0  42 NW17G24   29.76S WCI   4
BAR HARBOR     CLOUDY    16  14  93 NW14G32   29.57R WCI   1
WISCASSET      PTSUNNY   16   3  56 NW8G22    29.71F
6HR MIN TEMP:  10; 6HR MAX TEMP:  16; 6HR PCP:  0.01;

ROCKLAND       CLOUDY    12   9  85 CALM      29.64S
FRYEBURG       SUNNY     19  -6  33 N14       29.78S WCI   6
6HR MIN TEMP:  13; 6HR MAX TEMP:  20;

LEWISTONAUBURN MOSUNNY   16  -2  45 NW23G39   29.73F WCI  -2
AUGUSTA        CLOUDY    16   4  59 NW20G26   29.70F WCI  -1
6HR MIN TEMP:  11; 6HR MAX TEMP:  17; 6HR PCP: TRACE;

WATERVILLE     MOSUNNY   16   3  57 NW12G24   29.67S WCI   3
BANGOR         LGT SNOW  11   6  81 NW22G29   29.65S VSB 3/4 WCI  -8
6HR MIN TEMP:  11; 6HR MAX TEMP:  16;

GREENVILLE       N/A      2  -4  76 NW28G40   29.61F WCI -22
6HR MIN TEMP:  -1; 6HR MAX TEMP:   3; 6HR PCP:  0.05;

MILLINOCKET    CLOUDY    15   7  70 NW12      29.65F WCI   2
6HR MIN TEMP:  14; 6HR MAX TEMP:  18; 6HR PCP:  0.04;

HOULTON        LGT SNOW  11   6  81 N16G26    29.60F VSB 3/4 WCI  -6
6HR MIN TEMP:  11; 6HR MAX TEMP:  13; 6HR PCP: TRACE;

PRESQUE ISLE   CLOUDY     9   1  72 N21       29.67F WCI -11
6HR MIN TEMP:   7; 6HR MAX TEMP:  10;

FRENCHVILLE    CLOUDY     3  -3  76 NW21G32   29.67F WCI -18
6HR MIN TEMP:   1; 6HR MAX TEMP:   3; 6HR PCP: TRACE;

CARIBOU        LGT SNOW   7   1  76 NW20G28   29.66F VSB 1   WCI -13
6HR MIN TEMP:   5; 6HR MAX TEMP:   9; 6HR PCP:  0.25;

$$

NHZ002-005-008-009-011-012-014-311900-
NEW HAMPSHIRE

CITY           SKY/WX    TMP DP  RH WIND       PRES   REMARKS
PORTSMOUTH     MOSUNNY   18  -4  38 W17G29    29.78S WCI   2
ROCHESTER      SUNNY     18  -5  36 NW22G32   29.77S WCI   1
6HR MIN TEMP:  10; 6HR MAX TEMP:  18; 6HR PCP: TRACE;

NASHUA         SUNNY     18  -5  36 NW22G32   29.88S WCI   1
MANCHESTER     SUNNY     15  -7  37 NW22G37   29.86F WCI  -3
6HR MIN TEMP:   5; 6HR MAX TEMP:  15;

CONCORD        SUNNY     14  -7  38 NW22G32   29.89S WCI  -4
6HR MIN TEMP:   4; 6HR MAX TEMP:  14;

LACONIA        SUNNY     12  -8  40 W15G22    29.84R WCI  -4
PLYMOUTH       FAIR       9  -4  55 W18G30    29.93S WCI -10
BERLIN         SUNNY      6  -8  52 W8G18     29.86F
6HR MIN TEMP:  -5; 6HR MAX TEMP:   6; 6HR PCP: TRACE;

WHITEFIELD     SUNNY      5 -10  50 W13       29.93F WCI -12
6HR MIN TEMP:  -6; 6HR MAX TEMP:   5;

JAFFREY        SUNNY     14 -10  33 NW9G20    29.86F
6HR MIN TEMP:   2; 6HR MAX TEMP:  14; 6HR PCP: TRACE;

KEENE          SUNNY     14  -9  34 NW14G23   29.95S WCI  -1
LEBANON        SUNNY     12  -9  38 N15G22    29.99F WCI  -4
6HR MIN TEMP:  -1; 6HR MAX TEMP:  12; 6HR PCP: TRACE;

MT WASHINGTON  NOT AVBL
$$

VTZ005-007-008-311900-
VERMONT

CITY           SKY/WX    TMP DP  RH WIND       PRES   REMARKS
ST JOHNSBURY     N/A      7 -10  46 MISG      29.99F
MONTPELIER     SUNNY      2 -12  52 NW15G25   30.02F WCI -17
BURLINGTON     SUNNY      4 -13  45 N13G18    30.15F WCI -13
$$

MAZ007-012-024-CTZ003-RIZ002-NYZ038-NYZ072-311900-
SOUTHERN NEW ENGLAND AND NY

CITY           SKY/WX    TMP DP  RH WIND       PRES   REMARKS
BOSTON         MOSUNNY   20  -5  33 NW25G39   29.84S WCI   2
WORCESTER      SUNNY    N/A N/A N/A NW20G29   29.83F
NANTUCKET      MOSUNNY   24   5  44 NW26G37   29.75R WCI   8
PROVIDENCE       N/A     20  -6  31 NW20G30   29.88S WCI   4
HARTFORD       SUNNY     17  -7  34 N16G30    30.00F WCI   2
ALBANY         SUNNY     12  -9  38 NW17      30.14F WCI  -5
NEW YORK CITY  SUNNY     23   3  42 NW23G32   30.10F WCI   7
$$

ANZ081-ANZ082-ANZ150-NHZ014-MEZ023>029-311900-
COASTAL MARINE OBSERVATIONS

STATION/POSITION TIME  TEMP    WIND        PRES    WAVE
                       AIR SEA DIR/SP/G            HT/PER
                 (UTC) (F)     (DEG/KT/KT) (MB)    (FT/S)
MOUNT DESERT ROC 1700   22                  997.7R
MATINICUS ROCK   1700          330/ 33/ 37 1001.4F
PORTLAND WX BUOY 1750   21 39  330/ 29/ 33 1005.9F   4/ 4
WELLS            1700   19 33  320/ 15/ 20 1007.0S
ISLE OF SHOALS   1700   16     300/ 26/ 31 1007.2F
JEFFREYS LEDGE   1721      44                N/A    10/ 6
CASHES LEDGE BUO 1650   23 44  210/ 33     1001.9
$$

.............KEY..............
   WCI - WIND CHILL
   TC  - TEMPERATURE IN CELSIUS
   VSB - VISIBILITY IN MILES
   HX  - HEAT INDEX
   FAIR- INDICATES FEW OR NO CLOUDS BELOW 12,000 FT, WITH NO
         SIGNIFICANT WEATHER AND/OR OBSTRUCTIONS TO VISIBILITY.




USA.gov is the U.S. government's official web portal to all federal, state and local government web resources and services.